Flag for U.S.A. Weather past 2 weeks in Oceanside, California, U.S.A.

Now
61 °F

Fog.


Feels Like: 61 °F
Forecast: 54 / 78 °F
Wind: No wind

Location: Oceanside Weather Reporting Station

Current Time: Mar 28, 2015 at 4:04:44 AM

Latest Report: Mar 28, 2015 at 3:04 AM


Visibility: 5 mi

Pressure: 30.05 "Hg

Humidity: 87%

Dew point: 57 °F

Location of OceansideLocation

Historic Weather in Oceanside — Graph

°F

Oceanside temperature yesterday

Maximum temperature yesterday: 82 °F (at 1:52 PM)
Minimum temperature yesterday: 46 °F (at 6:52 AM)
Average temperature yesterday: 65 °F

Past Weeks' High & Low Weather Summary

 TemperatureHumidityPressure
High91 °F (Mar 15, 11:52 AM)93% (Mar 20, 12:52 AM)30.18 "Hg (Mar 20, 12:52 AM)
Low46 °F (Mar 27, 6:52 AM)13% (Mar 13, 12:52 PM)29.86 "Hg (Mar 16, 3:52 PM)
Average65 °F62%30.02 "Hg
* Reported Mar 13 3:52 AM — Mar 28 3:04 AM, Oceanside, Weather by CustomWeather, © 2015

Note: Actual official high and low records may vary slightly from our data, if they occured in-between our weather recording intervals... More about our weather records

Advertising

Oceanside weather history for previous 24 hours

 ConditionsComfort  
Time TempWeatherWind HumidityBarometerVisibility
3:04 AM
Sat, Mar 28
61 °FFog.No wind87%30.05 "Hg5 mi
1:52 AM61 °FLow clouds.3 mph83%30.05 "Hg9 mi
12:52 AM58 °FLow clouds.No wind90%30.06 "Hg7 mi
11:52 PM
Fri, Mar 27
58 °FPassing clouds.No wind90%30.06 "Hg7 mi
10:52 PM58 °FPassing clouds.No wind90%30.07 "Hg10 mi
9:52 PM62 °FClear.No wind86%30.05 "Hg9 mi
8:52 PM65 °FClear.6 mph85%30.03 "Hg10 mi
7:52 PM67 °FSunny.8 mph76%30.01 "Hg10 mi
6:52 PM69 °FSunny.7 mph68%29.98 "Hg10 mi
5:52 PM73 °FSunny.9 mph64%29.98 "Hg10 mi
4:52 PM76 °FSunny.8 mph47%29.98 "Hg10 mi
3:52 PM76 °FSunny.10 mph48%29.98 "Hg10 mi
2:52 PM81 °FSunny.9 mph38%29.99 "Hg10 mi
1:52 PM82 °FSunny.8 mph25%30.01 "Hg10 mi
12:52 PM81 °FSunny.10 mph27%30.05 "Hg10 mi
11:52 AM79 °FSunny.8 mph27%30.06 "Hg10 mi
10:52 AM81 °FSunny.8 mph27%30.06 "Hg10 mi
9:52 AM77 °FSunny.No wind24%30.06 "Hg10 mi
8:52 AM67 °FSunny.3 mph39%30.06 "Hg10 mi
7:52 AM56 °FSunny.6 mph58%30.06 "Hg10 mi
6:52 AM46 °FClear.3 mph83%30.05 "Hg10 mi
5:52 AM48 °FClear.No wind80%30.04 "Hg10 mi
4:52 AM50 °FClear.No wind77%30.03 "Hg10 mi
Weather by CustomWeather, © 2015

See weather overviewHow to use our weather pages